Location: Czekanka
(50.4925°N, 19.2643°E)
Time: 13:56:10
(UTC+00:00)

ISS - Visible Passes

Search period start: 08 December 2025 00:00
Search period end: 18 December 2025 00:00
Orbit: 416 x 421 km, 51.6° (Epoch: 07 December)

Date Brightness Start Highest point End Pass type
(mag) Time Alt. Az. Time Alt. Az. Time Alt. Az.
12 Dec -0.6 05:28:05 10° S 05:30:13 16° SE 05:32:20 10° E visible
13 Dec -0.2 04:41:53 10° SE 04:42:31 10° SE 04:43:07 10° SE visible
14 Dec -1.8 05:27:43 10° SSW 05:30:46 32° SSE 05:33:49 10° E visible
15 Dec -1.3 04:40:14 10° SSW 04:42:55 22° SE 04:45:38 10° E visible
16 Dec -1.0 03:53:50 13° SSE 03:55:07 15° SE 03:57:10 10° ESE visible
16 Dec -3.2 05:28:03 10° WSW 05:31:23 60° SSE 05:34:44 10° ENE visible
17 Dec -2.7 04:41:26 20° SW 04:43:25 43° SSE 04:46:39 10° E visible
